Regional Weather Roundup
Issued by NWS Wakefield, VA

Home | Current Version | Previous Version | Text Only | Print | Product List | Glossary Off
Versions: 1 2 3 4 5 6 7 8 9 10 11 12 13 14 15 16 17 18 19 20 21 22 23 24 25 26 27 28 29 30 31 32 33 34 35 36 37 38 39 40 41 42 43 44 45 46 47 48 49 50

000
ASUS41 KAKQ 271710
RWRAKQ

REGIONAL WEATHER ROUNDUP
NATIONAL WEATHER SERVICE WAKEFIELD VA
1200 PM EST TUE JAN 27 2015

Note: "fair" indicates few or no clouds below 12,000 feet with no
significant weather and/or obstructions to visibility. * = Denotes
station may not report precipitation (e.g., rain,snow,etc.),
thunder or fog.

VAZ042-051-052>054-056-271800-
NORTHERN VIRGINIA

CITY           SKY/WX    TMP DP  RH WIND       PRES   REMARKS
WASH NATIONAL  CLOUDY    34  22  61 NW18      29.82F WCI  23
DULLES         CLOUDY    31  21  66 NW17      29.82F WCI  19
FORT BELVOIR   PTSUNNY   33  22  66 NW16G22   29.82F WCI  22
QUANTICO       CLOUDY    33  22  63 N14G23    29.84F WCI  23
FREDERICKSBRG* CLOUDY    34  24  67 NW13G21   29.82F WCI  25
STAFFORD*      CLOUDY    32  22  67 NW15G23   29.86F WCI  22
WARRENTON      CLOUDY    34  29  80 NW10G18   29.82F
CULPEPER*      CLOUDY    32  23  69 N9G17     29.83F
MANASSAS*      CLOUDY    34  25  69 NW16G23   29.83F WCI  23
LEESBURG*      CLOUDY    32  27  80 N17       29.83S WCI  21
WINCHESTER     CLOUDY    30  19  64 NW16      29.84F WCI  19
FRONT ROYAL*   CLOUDY    30  21  69 NW7       29.84F
LURAY*         LGT SNOW  32  27  80 CALM      29.84F
$$

VAZ048-049-060>072-079>083-271800-
CENTRAL AND SOUTH CENTRAL VIRGINIA

CITY           SKY/WX    TMP DP  RH WIND       PRES   REMARKS
RICHMOND       CLOUDY    35  25  66 N16       29.80F
CHESTERFIELD*  PTSUNNY   34  18  51 NW12      29.82F
PETERSBURG*    LGT SNOW  34  30  85 NW10      29.82F
HANOVER        CLOUDY    34  25  69 NW10      29.82F
TAPPAHANNOCK*  CLOUDY    33  22  64 NW7       29.81F
QUINTON*       CLOUDY    34  26  71 NW10G16   29.80F
CHARLOTTSVILLE CLOUDY    32  21  64 N8        29.81F
GORDONSVILLE*  CLOUDY    32  26  78 NW5       29.81F
ORANGE*        CLOUDY    36  27  69 N8        29.83F
LOUISA*        FLURRIES  34  28  80 N6        29.80F
BUMPASS*       CLOUDY    32  24  72 N9        29.81F
FARMVILLE*     CLOUDY    40  27  58 NW7       29.80F
CREWE*         CLOUDY    33  29  86 W5        29.81F
FORT PICKETT*  CLOUDY    32  29  89 N5        29.81F
CHASE CITY*    PTSUNNY   39  28  63 N8        29.80F
CLARKSVILLE*   FAIR      36  25  64 N8        29.81F
SOUTH HILL*    CLOUDY    34  29  82 NW3       29.87F
LAWRENCEVILLE* CLOUDY    32  29  90 N7        29.81F
EMPORIA*       LGT SNOW  32  28  86 NW6       29.83F
$$

VAZ088>098-271800-
SOUTHEAST VIRGINIA

CITY           SKY/WX    TMP DP  RH WIND       PRES   REMARKS
NORFOLK        CLOUDY    33  25  72 N10G21    29.76F WCI  25
VIRGINIA BEACH CLOUDY    34  28  79 NW18G24   29.75F WCI  23
NORFOLK NAVAL  CLOUDY    36  26  67 N12       29.78F
WEST POINT*    CLOUDY    35  25  66 NW7       29.81F
SALUDA*        CLOUDY    32  26  77 NW8       29.78F
NEWPORT NEWS   CLOUDY    36  26  67 N12       29.78F
LANGLEY AFB    CLOUDY    33  26  76 N13       29.77F WCI  24
FORT EUSTIS    CLOUDY    33  27  78 N10G17    29.77F
WILLIAMSBURG*    N/A     36  28  75 N12       29.80S
HR EXEC AP*    CLOUDY    32  27  80 NW7       29.80F
FRANKLIN*      LGT SNOW  32  29  87 NW7       29.80F
WAKEFIELD      CLOUDY    33  26  75 VRB5      29.80F
$$

VAZ020-022-025-037-045-271800-
WEST CENTRAL AND SOUTHWEST VIRGINIA

CITY           SKY/WX    TMP DP  RH WIND       PRES   REMARKS
STAUNTON*      CLOUDY    30  19  62 NE10      29.84F WCI  21
WAYNESBORO*    CLOUDY    28  19  69 N3        29.80F
HOT SPRINGS VA SUNNY     20  12  72 W13       29.67R WCI   7
LYNCHBURG      SUNNY     36   8  31 VRB7      29.82F
DANVILLE       SUNNY     39  11  31 N12       29.84F
SOUTH BOSTON*  FAIR      38  15  38 NW6       29.82F
MARTINSVILLE   SUNNY     40   8  27 NW9       29.85F
ROANOKE        MOSUNNY   37   8  30 NW8       29.84F
BLACKSBURG     SUNNY     29   8  40 W9        29.83F
DUBLIN*        SUNNY     32   8  37 NW12      29.83F WCI  23
MARION*        SUNNY     30  13  48 W16G23    29.85S WCI  19
HILLSVILLE*    MOSUNNY   28   4  35 N20G25    29.78S WCI  15
RICHLANDS*     FAIR      26  13  57 NW6       29.86S
WISE*          CLOUDY    28  19  69 W10       29.89F WCI  19
ABINGDON*      CLOUDY    32  19  59 N7        29.90S
$$

MDZ021>025-VAZ099-100-271800-
SOUTHERN MARYLAND AND THE DELMARVA PENINSULA

CITY           SKY/WX    TMP DP  RH WIND       PRES   REMARKS
PATUXENT RIVER CLOUDY    33  24  69 NW16      29.77F WCI  23
BAY BRIDGE APT   N/A     32  27  80 N13G20    29.79F WCI  22
LEONARDTOWN    CLOUDY    32  23  69 NW7       29.79F
DOVER          PTSUNNY   32  28  86 NW15      29.73F WCI  22
GEORGETOWN     CLOUDY    32  23  69 N12G22    29.72F WCI  23
EASTON         PTSUNNY   34  28  80 N12G23    29.80F
CAMBRIDGE      MOSUNNY   36  28  75 NW15G21   29.75F
SALISBURY      CLOUDY    35  26  69 NW16G23   29.73F
OCEAN CITY     CLOUDY    32  24  72 N14G23    29.71F WCI  22
WALLOPS ISLAND CLOUDY    33  26  75 N14G23    29.73F WCI  23
ACCOMACK*      CLOUDY    32  27  80 N14G21    29.74F WCI  22
$$

NCZ012>017-030>032-271800-
NORTH CENTRAL AND EASTERN NORTH CAROLINA

CITY           SKY/WX    TMP DP  RH WIND       PRES   REMARKS
ROANOKE RAPIDS LGT SNOW  34  32  93 N6        29.82F
RALEIGH        PTSUNNY   36  18  48 VRB6      29.83F
ELIZABETH CITY CLOUDY    35  29  78 N16       29.76F
AHOSKIE*       CLOUDY    32  27  81 N9        29.81F
EDENTON*       LGT SNOW  32  29  90 NW8       29.79S
CURRITUCK*     CLOUDY    34  28  80 N14       29.77F WCI  24
KILL DEVIL HLS CLOUDY    34  32  93 NW12      29.72F WCI  25
MANTEO         CLOUDY    34  30  86 NW10G16   29.74F
CAPE HATTERAS  FLURRIES  34  32  92 N8G20     29.73F
TARBORO*       FLURRIES  36  31  84 N8        29.83F
GOLDSBORO      FLURRIES  36  36 100 N9        29.80F
WASHINGTON     CLOUDY    33  27  77 NW10G21   29.80F
GREENVILLE     PTSUNNY   36  30  80 N13G22    29.83F
NEW BERN       CLOUDY    39  27  62 N16G25    29.80F
WILMINGTON     CLOUDY    40  33  76 NW14G21   29.80F
$$

VAZ048-271800-
ELSEWHERE

CITY           SKY/WX    TMP DP  RH WIND       PRES   REMARKS
HARRISBURG PA  PTSUNNY   29  15  56 NW13      29.82S WCI  19
BALTIMORE      PTSUNNY   33  22  63 NW7       29.79F
ANNAPOLIS      CLOUDY    33  22  63 NW13      29.79F WCI  24
ANDREWS AFB    CLOUDY    31  23  73 NW15      29.79F WCI  20
PHILADELPHIA   CLOUDY    31  19  61 NW20      29.74F WCI  19
HENDERSON NC   SUNNY     36  25  63 NW6       29.82F
GREENSBORO     MOSUNNY   37  10  32 N9        29.82F
ROCKY MOUNT    CLOUDY    38  28  67 N12       29.82F
$$

VAZ100-271800-
MARINE

STATION/POSITION TIME  TEMP    WIND        PRES    WAVE   SWELL
                       AIR SEA DIR/SP/G            HT/PER HT/PER
                 (UTC) (F)     (DEG/KT/KT) (MB)    (FT/S) (FT/S)
BRANDYWINE LGT   1700   29 37  350/ 23/ 31 1006.1F
CAPE MAY NJ      1700   30 38  350/ 14/ 22 1005.6F
LEWES DE         1700   30 36  340/ 21/ 24 1006.4S
15NM E FENWICK I 1700   31 42              1004.7F  12/13
OCEAN-CITY-INLET 1700   32 38  350/ 13/ 16 1005.7F
WACHAPREAGUE VA  1700   33 40  330/  9/ 16 1007.0F
THOMAS POINT MD  1700   32 37  340/ 17/ 19 1009.3F
GOOSES REEF MD   1700   32     VRB 17/ 21  1007.5S
COVE POINT MD    1700   31     350/ 20/ 22 1008.0F
SOLOMONS ISLAND  1700      38                N/A
BISHOPS HEAD MD  1700   32 36  320/ 19/ 22 1007.2F
PINEY POINT MD   1700          340/ 20/ 23   N/A
POTOMAC MD       1700   33     330/ 16/ 19 1007.2S
CAMBRIDGE MD     1700   32 36  330/ 16/ 22 1007.5F
LEWISETTA VA     1700   33 38  320/ 12/ 17 1008.2F
RAPPAHANNOCK LGT 1700          330/ 22/ 24 1007.9F
STINGRAY PT      1700   34     330/ 14/ 16 1008.6F
YORK RVR RNG VA  1700   33     350/ 15/ 17 1007.3F
JAMESTOWN VA     1700   31     360/ 12/ 16   N/A
DOMINION TERM VA 1700   33     340/  5/ 14 1008.2F
KIPTOPEKE VA     1700      45  340/ 20/ 24   N/A
CHES BAY BRIDGE  1700   33 41  330/ 20/ 23 1007.3F
CAPE HENRY VA    1700   33     330/ 21/ 26 1006.2F
CHESAPEAKE LGHT  1600   34     340/ 24/ 27 1007.5R
WILLOUBY STN VA  1700   33     350/ 15/ 17 1008.3F
S CRANEY ISL VA  1700          340/  9/ 14 1008.1S
CAPE HENRY BUOY  1700      44                N/A     8/13   5/13
1ST LANDING BUOY 1700   34     340/ 21/ 27 1007.4F
CAPE CHARLES BUO 1700      42                N/A     7/12   7/12
OFFSHORE WE BUOY 1700      46                N/A    10/13  10/13
64NM E OF VA BCH 1700   36 51  340/ 21/ 27 1004.7F  14/13  11/13
DUCK PIER NC     1700   34 43  340/ 19/ 23 1005.9F
44100 DUCK FRF   1700      45                N/A    11/13   8/13
44056 DUCK FRF   1700      44                N/A     9/13   5/13
OREGON INLET NC  1700   34 45  320/ 14/ 20 1006.6F
HATTERAS NC      1700   35 48  340/ 18/ 23 1007.1F
DIAMOND SHLS NC  1700   39 69  340/ 19/ 25 1005.9F   8/11   7/11



USA.gov is the U.S. government's official web portal to all federal, state and local government web resources and services.